Retour au catalogue

PAYLOAD B

ActifMilitairePO
NORAD 49113·PAYLOAD·🇨🇳 China

Lancé Aug 24, 2021 depuis Jiuquan Satellite Launch Center

Loading…

Prochains Passages (prochaines 24 heures)

TLE

FraisSource: Space-Track

Époque: Sep 14, 2026, 14:12 UTC

1 49113U 21076B   26257.59188812 -.00000022  00000-0 -22989-4 0  9998
2 49113  86.4016  47.1716 0017160 289.9332  70.0001 14.09484774260028

Suivez PAYLOAD B en temps réel avec AllMySat

Download on the App Store